• In Russia
  • List of Countries
  • For 7 days
  • Water Temperature
  • Satellite Maps
  • Weather Map
  • Weather Widgets
  • user-avatar
    Login

    Hourly Weather Solden

    Today, 23 May, Tuesday

    Time Temperature Precipitation Wind Pressure Humidity
    00:00 +1°C° 0.1 mm 1 mps 582 mmHg 91%
    01:00 +1°C° 0.1 mm 1 mps 582 mmHg 91%
    02:00 +1°C° 0 mm 1 mps 581 mmHg 90%
    03:00 0°C° 0 mm 1 mps 581 mmHg 89%
    04:00 0°C° 0 mm 1 mps 581 mmHg 88%
    05:00 +2°C° 0 mm 1 mps 582 mmHg 83%
    06:00 +4°C° 0 mm 1 mps 584 mmHg 78%
    07:00 +6°C° 0 mm 1 mps 585 mmHg 73%
    08:00 +8°C° 0 mm 1 mps 586 mmHg 63%
    09:00 +10°C° 0 mm 1 mps 587 mmHg 52%
    10:00 +12°C° 0 mm 1 mps 588 mmHg 42%
    11:00 +13°C° 0 mm 1 mps 588 mmHg 40%
    12:00 +14°C° 0 mm 1 mps 588 mmHg 38%
    13:00 +15°C° 0 mm 2 mps 588 mmHg 36%
    14:00 +14°C° 0 mm 2 mps 588 mmHg 39%
    15:00 +14°C° 0 mm 2 mps 588 mmHg 42%
    16:00 +14°C° 0 mm 2 mps 587 mmHg 44%
    17:00 +12°C° 0.1 mm 2 mps 587 mmHg 55%
    18:00 +10°C° 0.1 mm 1 mps 586 mmHg 66%
    19:00 +8°C° 0.1 mm 1 mps 585 mmHg 77%
    20:00 +7°C° 0 mm 1 mps 585 mmHg 80%
    21:00 +5°C° 0 mm 1 mps 585 mmHg 82%
    22:00 +3°C° 0 mm 2 mps 584 mmHg 85%
    23:00 +2°C° 0 mm 2 mps 584 mmHg 86%

    Tomorrow, 24 May, Wednesday

    Time Temperature Precipitation Wind Pressure Humidity
    00:00 +2°C° 0 mm 2 mps 584 mmHg 87%
    01:00 +2°C° 0 mm 2 mps 584 mmHg 88%
    02:00 +1°C° 0 mm 2 mps 584 mmHg 87%
    03:00 +1°C° 0 mm 2 mps 584 mmHg 87%
    04:00 +1°C° 0 mm 2 mps 583 mmHg 87%
    05:00 +3°C° 0 mm 2 mps 584 mmHg 83%
    06:00 +4°C° 0 mm 2 mps 585 mmHg 79%
    07:00 +6°C° 0 mm 2 mps 586 mmHg 74%
    08:00 +8°C° 0 mm 2 mps 587 mmHg 67%
    09:00 +9°C° 0 mm 2 mps 588 mmHg 60%
    10:00 +12°C° 0 mm 2 mps 589 mmHg 52%
    11:00 +13°C° 0 mm 2 mps 589 mmHg 49%
    12:00 +14°C° 0 mm 2 mps 589 mmHg 45%
    13:00 +15°C° 0 mm 2 mps 589 mmHg 42%
    14:00 +14°C° 0.1 mm 2 mps 589 mmHg 44%
    15:00 +14°C° 0.1 mm 2 mps 589 mmHg 46%
    16:00 +14°C° 0.1 mm 2 mps 588 mmHg 47%
    17:00 +12°C° 0.1 mm 2 mps 588 mmHg 57%
    18:00 +9°C° 0.1 mm 2 mps 587 mmHg 66%
    19:00 +8°C° 0.1 mm 2 mps 586 mmHg 75%
    20:00 +6°C° 0 mm 2 mps 586 mmHg 79%
    21:00 +5°C° 0 mm 2 mps 585 mmHg 83%
    22:00 +3°C° 0 mm 2 mps 585 mmHg 87%
    23:00 +3°C° 0 mm 2 mps 585 mmHg 87%

    Day after tomorrow, 25 May, Thursday

    Time Temperature Precipitation Wind Pressure Humidity
    00:00 +2°C° 0 mm 2 mps 584 mmHg 88%
    01:00 +2°C° 0 mm 2 mps 584 mmHg 88%
    02:00 +1°C° 0 mm 2 mps 584 mmHg 88%
    03:00 +1°C° 0 mm 2 mps 583 mmHg 87%
    04:00 +1°C° 0 mm 2 mps 583 mmHg 87%
    05:00 +2°C° 0 mm 2 mps 584 mmHg 80%
    06:00 +4°C° 0 mm 2 mps 584 mmHg 73%
    07:00 +6°C° 0 mm 2 mps 585 mmHg 67%
    08:00 +7°C° 0 mm 2 mps 585 mmHg 61%
    09:00 +9°C° 0 mm 2 mps 586 mmHg 56%
    10:00 +10°C° 0 mm 3 mps 587 mmHg 50%
    11:00 +11°C° 0.1 mm 3 mps 587 mmHg 49%
    12:00 +11°C° 0.1 mm 3 mps 587 mmHg 48%
    13:00 +12°C° 0.1 mm 3 mps 587 mmHg 47%
    14:00 +12°C° 0 mm 3 mps 587 mmHg 47%
    15:00 +12°C° 0 mm 3 mps 587 mmHg 48%
    16:00 +12°C° 0 mm 3 mps 586 mmHg 48%
    17:00 +10°C° 0 mm 2 mps 586 mmHg 57%
    18:00 +8°C° 0 mm 2 mps 585 mmHg 65%
    19:00 +7°C° 0 mm 2 mps 585 mmHg 74%
    20:00 +6°C° 0 mm 1 mps 584 mmHg 79%
    21:00 +4°C° 0 mm 1 mps 584 mmHg 84%
    22:00 +3°C° 0 mm 1 mps 584 mmHg 89%
    23:00 +2°C° 0 mm 1 mps 583 mmHg 90%

    26 May, Friday

    Time Temperature Precipitation Wind Pressure Humidity
    00:00 +2°C° 0 mm 1 mps 583 mmHg 91%
    01:00 +1°C° 0 mm 1 mps 583 mmHg 92%
    02:00 +1°C° 0 mm 1 mps 582 mmHg 90%
    03:00 0°C° 0 mm 1 mps 582 mmHg 88%
    04:00 0°C° 0 mm 1 mps 582 mmHg 86%
    05:00 +2°C° 0 mm 1 mps 583 mmHg 75%
    06:00 +4°C° 0 mm 1 mps 584 mmHg 65%
    07:00 +6°C° 0 mm 1 mps 585 mmHg 55%
    08:00 +9°C° 0 mm 1 mps 586 mmHg 50%
    09:00 +11°C° 0 mm 1 mps 587 mmHg 44%
    10:00 +13°C° 0 mm 2 mps 587 mmHg 39%
    11:00 +13°C° 0 mm 2 mps 588 mmHg 38%
    12:00 +14°C° 0 mm 2 mps 588 mmHg 38%
    13:00 +15°C° 0 mm 2 mps 588 mmHg 38%
    14:00 +15°C° 0 mm 2 mps 587 mmHg 41%
    15:00 +14°C° 0 mm 2 mps 587 mmHg 44%
    16:00 +14°C° 0 mm 2 mps 587 mmHg 47%
    17:00 +12°C° 0 mm 2 mps 586 mmHg 57%
    18:00 +9°C° 0 mm 2 mps 585 mmHg 68%
    19:00 +9°C° 0 mm 1 mps 585 mmHg 79%
    20:00 +6°C° 0 mm 1 mps 584 mmHg 85%
    21:00 +4°C° 0 mm 1 mps 583 mmHg 91%
    22:00 +1°C° 0 mm 0 mps 582 mmHg 96%
    23:00 +1°C° 0 mm 0 mps 582 mmHg 96%

    27 May, Saturday

    Time Temperature Precipitation Wind Pressure Humidity
    00:00 +1°C° 0 mm 0 mps 582 mmHg 96%
    01:00 0°C° 0 mm 0 mps 582 mmHg 96%
    02:00 0°C° 0 mm 0 mps 582 mmHg 95%
    03:00 0°C° 0 mm 0 mps 582 mmHg 95%
    04:00 0°C° 0 mm 0 mps 582 mmHg 95%
    05:00 +2°C° 0 mm 0 mps 583 mmHg 87%
    06:00 +5°C° 0 mm 0 mps 585 mmHg 79%
    07:00 +7°C° 0 mm 0 mps 586 mmHg 72%
    08:00 +10°C° 0 mm 1 mps 587 mmHg 64%
    09:00 +11°C° 0 mm 1 mps 588 mmHg 56%
    10:00 +13°C° 0 mm 1 mps 589 mmHg 48%
    11:00 +14°C° 0 mm 1 mps 589 mmHg 47%
    12:00 +14°C° 0 mm 2 mps 589 mmHg 46%
    13:00 +15°C° 0 mm 2 mps 589 mmHg 45%
    14:00 +15°C° 0.1 mm 2 mps 589 mmHg 48%
    15:00 +14°C° 0.1 mm 2 mps 588 mmHg 52%
    16:00 +14°C° 0.1 mm 2 mps 588 mmHg 55%
    17:00 +12°C° 0.1 mm 2 mps 588 mmHg 65%
    18:00 +10°C° 0.1 mm 2 mps 587 mmHg 75%
    19:00 +9°C° 0.1 mm 1 mps 587 mmHg 85%
    20:00 +8°C° 0 mm 1 mps 586 mmHg 89%
    21:00 +6°C° 0 mm 1 mps 586 mmHg 93%
    22:00 +5°C° 0 mm 1 mps 586 mmHg 98%
    23:00 +5°C° 0 mm 1 mps 586 mmHg 98%

    28 May, Sunday

    Time Temperature Precipitation Wind Pressure Humidity
    00:00 +5°C° 0 mm 1 mps 586 mmHg 98%
    01:00 +5°C° 0 mm 1 mps 586 mmHg 98%
    02:00 +5°C° 0 mm 1 mps 586 mmHg 98%
    03:00 +5°C° 0 mm 1 mps 586 mmHg 98%
    04:00 +4°C° 0 mm 1 mps 586 mmHg 98%
    05:00 +6°C° 0 mm 1 mps 586 mmHg 93%
    06:00 +6°C° 0 mm 0 mps 587 mmHg 88%
    07:00 +7°C° 0 mm 0 mps 588 mmHg 84%
    08:00 +9°C° 0 mm 0 mps 589 mmHg 73%
    09:00 +12°C° 0 mm 1 mps 590 mmHg 63%
    10:00 +14°C° 0 mm 1 mps 591 mmHg 52%
    11:00 +15°C° 0 mm 1 mps 591 mmHg 50%
    12:00 +15°C° 0 mm 1 mps 591 mmHg 49%
    13:00 +16°C° 0 mm 2 mps 591 mmHg 47%
    14:00 +15°C° 0.1 mm 2 mps 591 mmHg 51%
    15:00 +15°C° 0.1 mm 2 mps 590 mmHg 55%
    16:00 +14°C° 0.1 mm 2 mps 590 mmHg 59%
    17:00 +13°C° 0.1 mm 2 mps 590 mmHg 68%
    18:00 +11°C° 0.1 mm 1 mps 589 mmHg 76%
    19:00 +10°C° 0.1 mm 1 mps 589 mmHg 85%
    20:00 +8°C° 0 mm 1 mps 588 mmHg 89%
    21:00 +7°C° 0 mm 1 mps 587 mmHg 93%
    22:00 +5°C° 0 mm 1 mps 587 mmHg 97%
    23:00 +5°C° 0 mm 1 mps 587 mmHg 97%
    Show more